weather.gov     
National Weather Service

Terminal Aerodrome Forecast
NWS Homepage
This page is being discontinued on March 12, 2014.
The same data is available at this site. Please update your bookmarks.
Thank you, and we apologize for the inconvenience.
Please send an email to SR-SRH.Webmaster@noaa.gov with any concerns.


Current Version
Previous Version:    01  02  03  04  05  06  07  08  09  10  11  12  13  14  15  16  17  18  19  20  21  22  23  24  25  26  27  28  29  30  
   31  32  33  34  35  36  37  38  39  
[Printable]
313
FTUS43 KIND 162300
TAFBMG
TAF
KBMG 162320Z 1700/1724 VRB03KT P6SM SCT035
     FM170700 00000KT 3SM BR FEW035
     FM170900 00000KT 1SM BR BCFG FEW035
     FM171400 VRB03KT P6SM SCT025
     FM171700 25004KT P6SM BKN040
      AMD LTD TO CLD VIS AND WIND 1701/1713=


U.S. Dept. of Commerce
NOAA National Weather Service
1325 East West Highway
Silver Spring, MD 20910
E-mail: w-nws.webmaster@noaa.gov
Page last modified: May 16, 2007
NATIONAL WEATHER SERVICE: for Safety, for Work, for Fun - FOR LIFE